GW3962 Weather Reports


time (UTC)temp
C
wind
direction
speed
KPH
gust
KPH
rain 1hr
cm
rain 24hr
cm
rain mn
cm
humidity
%
barometer
mb
20260507012935 16 40 6.4 9.7 0.00 0.05 0.05 86 1014.4
20260507012431 16 25 8.0 12.9 0.00 0.05 0.05 86 1014.1
20260507011928 16 25 6.4 9.7 0.00 0.05 0.05 86 1013.8
20260507011426 16 351 6.4 11.3 0.00 0.05 0.05 86 1013.7
20260507010925 16 42 8.0 9.7 0.00 0.05 0.05 86 1013.7
20260507010421 16 11 4.8 8.0 0.00 0.05 0.05 85 1013.9
20260507005918 16 19 3.2 3.2 0.00 0.05 0.05 85 1014.1
20260507005415 16 349 6.4 8.0 0.00 0.05 0.05 85 1013.8
20260507004911 16 26 6.4 9.7 0.00 0.05 0.05 85 1013.9
20260507004408 16 5 6.4 11.3 0.00 0.05 0.05 85 1013.5
20260507003906 16 42 12.9 20.9 0.00 0.05 0.05 85 1013.3
20260507003401 16 22 4.8 4.8 0.00 0.05 0.05 85 1013.7
20260507002856 16 32 6.4 9.7 0.00 0.05 0.05 85 1013.5
20260507002352 16 33 4.8 8.0 0.00 0.05 0.05 85 1013.4
20260507001850 16 35 4.8 8.0 0.00 0.05 0.05 85 1013.1
20260507001346 16 328 3.2 3.2 0.00 0.05 0.05 84 1013.7
20260507000843 16 13 6.4 8.0 0.00 0.05 0.05 85 1013.4
20260507000338 16 30 11.3 16.1 0.00 0.05 0.05 85 1013.7
20260506235835 16 25 6.4 8.0 0.00 0.05 0.05 85 1013.3
20260506235332 16 34 6.4 11.3 0.00 0.05 0.05 85 1013.1
20260506234828 16 3 4.8 4.8 0.00 0.05 0.05 85 1013.4
20260506234326 16 348 8.0 9.7 0.00 0.05 0.05 85 1013.7
20260506233824 16 346 9.7 14.5 0.00 0.05 0.05 84 1013.3
20260506233319 16 358 3.2 4.8 0.00 0.05 0.05 84 1013.0
20260506232817 16 14 11.3 14.5 0.00 0.05 0.05 84 1013.0
20260506232312 16 24 11.3 16.1 0.00 0.05 0.05 85 1013.1
20260506231809 16 336 4.8 8.0 0.00 0.05 0.05 84 1013.1
20260506231307 16 33 8.0 9.7 0.00 0.05 0.05 84 1013.0
20260506230804 16 15 8.0 9.7 0.00 0.05 0.05 84 1013.5
20260506230300 16 37 4.8 8.0 0.00 0.05 0.05 83 1013.1
20260506225756 16 339 6.4 11.3 0.00 0.05 0.05 83 1012.9
20260506225254 16 5 4.8 8.0 0.00 0.05 0.05 84 1012.9
20260506224745 16 340 11.3 12.9 0.00 0.05 0.05 85 1013.0
20260506224243 16 32 8.0 11.3 0.00 0.05 0.05 85 1013.2
20260506223738 16 26 4.8 9.7 0.00 0.05 0.05 85 1013.3
20260506223233 15 20 6.4 11.3 0.00 0.05 0.05 85 1013.0
20260506222731 15 353 3.2 4.8 0.00 0.05 0.05 85 1013.1
20260506222226 15 345 8.0 12.9 0.00 0.05 0.05 85 1013.0
20260506221724 16 15 9.7 12.9 0.00 0.05 0.05 85 1012.5
20260506221222 16 37 8.0 11.3 0.00 0.05 0.05 85 1013.0
20260506220714 15 16 8.0 14.5 0.00 0.05 0.05 86 1013.0
20260506220213 15 43 8.0 11.3 0.00 0.05 0.05 86 1013.0
20260506215710 15 17 11.3 16.1 0.00 0.05 0.05 86 1013.1
20260506215206 15 14 8.0 12.9 0.00 0.05 0.05 86 1013.0
20260506214703 15 349 14.5 25.7 0.00 0.05 0.05 86 1012.9
20260506214200 15 19 11.3 14.5 0.00 0.05 0.05 86 1012.9
20260506213659 15 18 14.5 22.5 0.00 0.05 0.05 85 1013.0
20260506213155 16 59 11.3 12.9 0.00 0.05 0.05 85 1012.6
20260506212653 16 340 6.4 11.3 0.00 0.05 0.05 84 1012.7
20260506212148 16 23 8.0 12.9 0.00 0.05 0.05 84 1013.0
20260506211644 16 39 11.3 14.5 0.00 0.05 0.05 84 1013.2
20260506211141 16 26 8.0 9.7 0.00 0.05 0.05 85 1013.1
20260506210638 16 59 9.7 12.9 0.00 0.05 0.05 83 1013.2
20260506210134 16 320 11.3 16.1 0.00 0.05 0.05 83 1013.2
20260506205631 16 343 11.3 14.5 0.00 0.05 0.05 83 1013.3
20260506205126 16 27 8.0 11.3 0.00 0.05 0.05 82 1013.3
20260506204625 17 333 4.8 8.0 0.00 0.05 0.05 82 1013.3
20260506204121 16 46 9.7 12.9 0.00 0.05 0.05 82 1013.2
20260506203619 16 7 14.5 17.7 0.00 0.05 0.05 84 1013.3
20260506203116 16 37 3.2 4.8 0.00 0.05 0.05 84 1013.6
20260506202614 16 2 3.2 3.2 0.00 0.05 0.05 83 1013.6
20260506202109 16 34 12.9 20.9 0.00 0.05 0.05 83 1013.2
20260506201607 16 3 11.3 22.5 0.00 0.05 0.05 83 1013.3
20260506201103 16 338 11.3 17.7 0.00 0.05 0.05 83 1013.2
20260506200559 16 52 11.3 14.5 0.00 0.05 0.05 83 1013.2
20260506200056 17 143 11.3 14.5 0.00 0.05 0.05 81 1013.1
20260506195553 17 317 19.3 32.2 0.00 0.05 0.05 80 1013.1
20260506195050 18 330 6.4 11.3 0.00 0.05 0.05 79 1013.1
20260506194548 18 324 9.7 14.5 0.00 0.05 0.05 80 1013.1
20260506194043 18 15 12.9 20.9 0.00 0.05 0.05 81 1013.1
20260506193541 18 22 11.3 16.1 0.00 0.05 0.05 81 1013.2
20260506193038 18 335 9.7 14.5 0.00 0.05 0.05 82 1013.0
20260506192534 17 35 14.5 22.5 0.00 0.05 0.05 82 1013.1
20260506192030 18 20 4.8 11.3 0.00 0.05 0.05 83 1012.9
20260506191527 18 37 14.5 25.7 0.00 0.05 0.05 83 1013.1
20260506191023 17 352 24.1 29.0 0.00 0.05 0.05 85 1013.2
20260506190521 18 28 9.7 12.9 0.00 0.05 0.05 83 1013.0
20260506190019 18 341 17.7 24.1 0.00 0.05 0.05 85 1013.2
20260506185515 18 354 19.3 27.4 0.00 0.05 0.05 83 1013.0
20260506185011 19 38 14.5 17.7 0.00 0.05 0.05 82 1013.2
20260506184509 19 328 11.3 22.5 0.00 0.05 0.05 82 1013.1
20260506184006 20 27 12.9 16.1 0.00 0.05 0.05 81 1012.9
20260506183501 22 37 14.5 17.7 0.00 0.05 0.05 76 1012.9
20260506182958 22 43 8.0 12.9 0.00 0.05 0.05 75 1012.5
20260506182455 23 39 8.0 14.5 0.00 0.05 0.05 74 1012.6
20260506181948 23 7 3.2 4.8 0.00 0.05 0.05 73 1012.7
20260506181446 23 21 4.8 4.8 0.00 0.05 0.05 74 1012.7
20260506180942 23 58 9.7 11.3 0.00 0.05 0.05 74 1012.9
20260506180438 23 333 4.8 8.0 0.00 0.05 0.05 73 1012.7
20260506175935 22 74 6.4 8.0 0.00 0.05 0.05 77 1012.6
20260506175432 22 14 1.6 1.6 0.00 0.05 0.05 76 1012.6
20260506174928 22 13 8.0 11.3 0.00 0.05 0.05 78 1012.6
20260506174426 21 93 4.8 9.7 0.00 0.05 0.05 79 1012.1
20260506173917 21 306 1.6 3.2 0.00 0.05 0.05 80 1012.1
20260506173414 21 53 4.8 11.3 0.00 0.05 0.05 80 1012.1
20260506172911 20 80 6.4 11.3 0.00 0.05 0.05 82 1012.2
20260506172407 20 339 3.2 8.0 0.00 0.05 0.05 82 1012.3
20260506171905 20 325 1.6 3.2 0.00 0.05 0.05 84 1012.1
20260506171402 20 352 3.2 4.8 0.00 0.05 0.05 85 1012.3
20260506170859 18 11 4.8 8.0 0.00 0.05 0.05 88 1012.3
20260506170355 18 83 12.9 16.1 0.00 0.05 0.05 90 1012.2
20260506165849 17 0 14.5 20.9 0.00 0.05 0.05 93 1012.3
20260506165346 17 44 6.4 11.3 0.00 0.05 0.05 94 1012.3
20260506164842 16 65 12.9 20.9 0.00 0.05 0.05 95 1012.3
20260506164339 16 56 9.7 14.5 0.00 0.05 0.05 95 1012.3
20260506163837 16 65 9.7 12.9 0.00 0.05 0.05 95 1012.9
20260506163331 16 25 8.0 9.7 0.00 0.05 0.05 95 1012.6
20260506162827 16 346 8.0 11.3 0.18 0.05 0.05 95 1013.1
20260506162325 16 64 14.5 20.9 0.30 0.05 0.05 95 1013.2
20260506161822 16 7 12.9 17.7 0.13 0.03 0.03 95 1013.4
20260506161319 16 347 8.0 11.3 0.00 0.00 0.00 94 1013.6
20260506160812 16 52 11.3 17.7 0.00 0.00 0.00 93 1013.6
20260506160308 16 357 14.5 22.5 0.00 0.00 0.00 92 1013.6
20260506155807 16 37 12.9 17.7 0.00 0.00 0.00 91 1014.1
20260506155306 16 32 11.3 22.5 0.00 0.00 0.00 92 1014.0
20260506153415 17 53 14.5 25.7 0.00 0.00 0.00 92 1013.3
20260506152913 17 39 8.0 11.3 0.00 0.00 0.00 92 1013.6
20260506152409 17 57 11.3 24.1 0.00 0.00 0.00 92 1013.4
20260506151908 17 40 14.5 22.5 0.00 0.00 0.00 92 1013.3
20260506151404 18 17 8.0 9.7 0.00 0.00 0.00 92 1013.2
20260506150902 18 350 9.7 16.1 0.00 0.00 0.00 92 1013.1
20260506150358 18 357 6.4 9.7 0.00 0.00 0.00 92 1013.0
20260506145855 18 336 8.0 12.9 0.00 0.00 0.00 92 1012.7
20260506145351 18 18 12.9 22.5 0.00 0.00 0.00 92 1012.6
20260506144849 18 14 8.0 12.9 0.00 0.00 0.00 92 1012.2
20260506144345 19 48 17.7 24.1 0.00 0.00 0.00 91 1011.7
20260506143844 20 15 11.3 14.5 0.00 0.00 0.00 91 1011.8
20260506143340 20 325 11.3 14.5 0.00 0.00 0.00 90 1011.9
20260506142839 22 338 12.9 17.7 0.00 0.00 0.00 87 1011.4
20260506142336 25 317 0.0 0.0 0.00 0.00 0.00 86 1011.3
20260506141834 25 275 3.2 4.8 0.00 0.00 0.00 88 1010.7
20260506141332 24 201 0.0 1.6 0.00 0.00 0.00 89 1010.7
20260506140830 24 161 3.2 4.8 0.00 0.00 0.00 89 1010.8
20260506140327 24 128 6.4 9.7 0.00 0.00 0.00 89 1011.0
20260506135824 24 271 1.6 3.2 0.00 0.00 0.00 90 1010.8
20260506135320 23 295 1.6 1.6 0.00 0.00 0.00 90 1011.2
20260506134817 23 299 0.0 1.6 0.00 0.00 0.00 91 1011.0
20260506134313 23 283 3.2 3.2 0.00 0.00 0.00 91 1010.6
20260506133810 23 215 1.6 1.6 0.00 0.00 0.00 92 1010.5
20260506133307 23 318 1.6 1.6 0.00 0.00 0.00 92 1010.8
20260506132804 23 302 1.6 1.6 0.00 0.00 0.00 92 1010.9
20260506132301 23 302 3.2 3.2 0.00 0.00 0.00 93 1010.7
20260506131759 23 191 6.4 8.0 0.00 0.00 0.00 93 1010.7
20260506131254 23 204 4.8 8.0 0.00 0.00 0.00 92 1010.3
20260506130751 23 219 8.0 9.7 0.00 0.00 0.00 92 1010.2
20260506130248 23 139 6.4 9.7 0.00 0.00 0.00 93 1010.2
20260506125746 23 175 4.8 4.8 0.00 0.00 0.00 94 1010.2
20260506125244 23 169 4.8 4.8 0.00 0.00 0.00 94 1010.0
20260506124742 23 173 3.2 3.2 0.00 0.00 0.00 93 1010.3
20260506124239 23 143 8.0 9.7 0.00 0.00 0.00 94 1010.1
20260506123737 22 137 4.8 4.8 0.00 0.00 0.00 94 1009.6
20260506123235 22 193 4.8 8.0 0.00 0.00 0.00 94 1010.1
20260506122732 22 178 4.8 8.0 0.00 0.00 0.00 94 1009.8
20260506122229 22 197 6.4 8.0 0.00 0.00 0.00 95 1009.6
20260506121728 22 204 3.2 4.8 0.00 0.00 0.00 95 1009.8
20260506121224 22 249 4.8 8.0 0.00 0.00 0.00 95 1010.0
20260506120722 22 220 6.4 8.0 0.00 0.00 0.00 95 1009.9
20260506120219 22 208 4.8 8.0 0.00 0.00 0.00 94 1009.9
20260506115717 22 212 6.4 8.0 0.00 0.00 0.00 94 1010.0
20260506115214 22 266 4.8 4.8 0.00 0.00 0.00 94 1009.8
20260506114712 22 235 8.0 9.7 0.00 0.00 0.00 94 1009.9
20260506114209 22 198 8.0 11.3 0.00 0.00 0.00 94 1009.6
20260506113708 22 208 8.0 11.3 0.00 0.00 0.00 94 1009.6
20260506113205 22 251 8.0 9.7 0.00 0.00 0.00 94 1009.8
20260506112701 22 199 6.4 8.0 0.00 0.00 0.00 94 1009.9
20260506112159 22 257 6.4 8.0 0.00 0.00 0.00 94 1010.0
20260506111656 22 237 3.2 3.2 0.00 0.00 0.00 94 1010.3
20260506111154 22 253 4.8 4.8 0.00 0.00 0.00 94 1010.0
20260506110651 22 264 3.2 3.2 0.00 0.00 0.00 94 1010.1
20260506110148 22 220 6.4 8.0 0.00 0.00 0.00 94 1010.1
20260506105644 22 246 4.8 4.8 0.00 0.00 0.00 94 1010.0
20260506105141 23 221 6.4 8.0 0.00 0.00 0.00 93 1009.9
20260506104640 23 224 8.0 9.7 0.00 0.00 0.00 93 1010.1
20260506104137 23 210 6.4 9.7 0.00 0.00 0.00 93 1009.8
20260506103634 23 224 9.7 9.7 0.00 0.00 0.00 93 1009.9
20260506103131 23 259 4.8 4.8 0.00 0.00 0.00 93 1009.6
20260506102629 23 220 8.0 9.7 0.00 0.00 0.00 93 1009.9
20260506102126 23 251 4.8 8.0 0.00 0.00 0.00 93 1009.9
20260506101623 23 235 6.4 8.0 0.00 0.00 0.00 93 1009.6
20260506101119 23 221 8.0 9.7 0.00 0.00 0.00 93 1009.3
20260506100618 23 240 9.7 11.3 0.00 0.00 0.00 92 1009.5
20260506100116 23 220 9.7 12.9 0.00 0.00 0.00 92 1009.4
20260506095615 23 223 9.7 11.3 0.00 0.00 0.00 92 1009.1
20260506095111 23 221 8.0 9.7 0.00 0.00 0.00 92 1009.4
20260506094608 23 218 8.0 11.3 0.00 0.00 0.00 92 1009.3
20260506094106 23 204 9.7 11.3 0.00 0.00 0.00 92 1009.3
20260506093604 23 215 6.4 9.7 0.00 0.00 0.00 92 1009.1
20260506093101 23 198 8.0 8.0 0.00 0.00 0.00 92 1009.0
20260506092559 23 208 9.7 11.3 0.00 0.00 0.00 92 1008.8
20260506092055 23 232 12.9 14.5 0.00 0.00 0.00 92 1008.9
20260506091554 23 238 9.7 11.3 0.00 0.00 0.00 92 1008.9
20260506091051 23 212 11.3 12.9 0.00 0.00 0.00 92 1008.8
20260506090549 23 239 9.7 11.3 0.00 0.00 0.00 92 1008.6
20260506090045 23 214 8.0 9.7 0.00 0.00 0.00 92 1008.8
20260506085542 23 219 17.7 20.9 0.00 0.00 0.00 92 1008.6
20260506085038 23 198 12.9 16.1 0.00 0.00 0.00 92 1008.6
20260506084535 23 196 11.3 14.5 0.00 0.00 0.00 92 1008.5
20260506084031 23 215 8.0 9.7 0.00 0.00 0.00 92 1008.8
20260506083528 23 257 9.7 9.7 0.00 0.00 0.00 92 1008.8
20260506083026 23 180 14.5 16.1 0.00 0.00 0.00 92 1008.6
20260506082523 23 222 12.9 16.1 0.00 0.00 0.00 92 1008.7
20260506082018 23 208 12.9 16.1 0.00 0.00 0.00 92 1008.4
20260506081517 23 213 11.3 14.5 0.00 0.00 0.00 92 1008.5
20260506081014 23 241 9.7 11.3 0.00 0.00 0.00 92 1008.5
20260506080511 23 203 17.7 20.9 0.00 0.00 0.00 92 1008.7
20260506073454 23 203 17.7 24.1 0.00 0.00 0.00 92 1008.8
20260506072952 23 185 20.9 27.4 0.00 0.00 0.00 91 1008.8
20260506072449 23 174 17.7 22.5 0.00 0.00 0.00 91 1009.0
20260506071947 23 194 17.7 20.9 0.00 0.00 0.00 91 1009.2
20260506071444 23 212 16.1 20.9 0.00 0.00 0.00 91 1008.8
20260506070941 23 206 17.7 20.9 0.00 0.00 0.00 91 1008.9
20260506070438 23 203 19.3 22.5 0.00 0.00 0.00 91 1008.9
20260506062416 23 204 25.7 27.4 0.00 0.00 0.00 91 1008.8
20260506061911 23 210 17.7 20.9 0.00 0.00 0.00 91 1008.7
20260506061408 23 218 19.3 27.4 0.00 0.00 0.00 91 1008.9
20260506060906 23 198 14.5 20.9 0.00 0.00 0.00 91 1009.3
20260506060404 23 210 12.9 17.7 0.00 0.00 0.00 91 1008.8
20260506051336 23 231 14.5 17.7 0.00 0.00 0.00 92 1009.0
20260506050833 23 244 12.9 14.5 0.00 0.00 0.00 91 1009.1
20260506050330 23 200 9.7 11.3 0.00 0.00 0.00 91 1008.9
20260506044821 23 179 11.3 14.5 0.00 0.00 0.00 91 1009.1
20260506044319 23 235 9.7 14.5 0.00 0.00 0.00 91 1008.9
20260506043815 23 243 14.5 17.7 0.00 0.00 0.00 91 1008.8
20260506043313 23 193 17.7 20.9 0.00 0.00 0.00 91 1009.3
20260506042811 23 189 11.3 14.5 0.00 0.00 0.00 91 1008.9
20260506042310 23 198 12.9 17.7 0.00 0.00 0.00 91 1008.8
20260506041808 23 194 9.7 11.3 0.00 0.00 0.00 91 1009.0
20260506041305 23 182 17.7 20.9 0.00 0.00 0.00 91 1008.8
20260506040802 23 184 11.3 14.5 0.00 0.00 0.00 90 1009.0
20260506040259 23 203 8.0 8.0 0.00 0.00 0.00 90 1008.9
20260506035756 23 251 8.0 9.7 0.00 0.00 0.00 90 1008.9
20260506035253 24 229 14.5 16.1 0.00 0.00 0.00 90 1008.8
20260506034750 24 221 14.5 17.7 0.00 0.00 0.00 89 1008.6
20260506034247 24 194 8.0 11.3 0.00 0.00 0.00 89 1008.7
20260506033744 24 198 14.5 16.1 0.00 0.00 0.00 89 1008.3
20260506033241 24 175 11.3 14.5 0.00 0.00 0.00 88 1008.5
20260506032738 25 201 12.9 12.9 0.00 0.00 0.00 87 1008.5
20260506032235 25 220 9.7 12.9 0.00 0.00 0.00 87 1008.5
20260506031726 25 184 9.7 14.5 0.00 0.00 0.00 86 1008.4
20260506031224 25 185 4.8 4.8 0.00 0.00 0.00 86 1008.4
20260506030722 25 210 11.3 12.9 0.00 0.00 0.00 86 1008.2
20260506030219 25 205 6.4 8.0 0.00 0.00 0.00 85 1008.2
20260506025716 25 218 6.4 9.7 0.00 0.00 0.00 85 1008.1
20260506025212 25 230 8.0 9.7 0.00 0.00 0.00 85 1008.0
20260506024709 25 259 3.2 3.2 0.00 0.00 0.00 84 1007.9
20260506024205 25 215 8.0 9.7 0.00 0.00 0.00 84 1008.0
20260506023702 25 199 9.7 11.3 0.00 0.00 0.00 83 1008.0
20260506023200 25 216 8.0 9.7 0.00 0.00 0.00 83 1007.8
20260506022656 25 202 4.8 4.8 0.00 0.00 0.00 83 1007.8
20260506022154 25 207 8.0 11.3 0.00 0.00 0.00 83 1007.6
20260506021652 25 179 6.4 8.0 0.00 0.00 0.00 83 1007.2
20260506021148 25 216 12.9 14.5 0.00 0.00 0.00 82 1007.5
20260506020645 25 208 9.7 9.7 0.00 0.00 0.00 82 1007.1
20260506020143 25 210 8.0 9.7 0.00 0.00 0.00 82 1007.2
20260506015640 25 197 6.4 8.0 0.00 0.00 0.00 82 1007.0
20260506015137 26 188 6.4 9.7 0.00 0.00 0.00 82 1006.9
20260506014635 26 194 11.3 14.5 0.00 0.00 0.00 81 1006.9
20260506014131 26 209 6.4 8.0 0.00 0.00 0.00 81 1007.0
20260506013629 26 178 9.7 12.9 0.00 0.00 0.00 81 1006.8
20260506013125 26 176 8.0 9.7 0.00 0.00 0.00 80 1006.9